THORAD DELTA 1 DEB, 8162

Orbit data source: Space-Track

THORAD DELTA 1 DEB, 8162 is space debris in SSO originally from a launch on Fri, 15 Nov 1974 UTC launched from the Air Force Western Test Range (AFWTR). Debris objects in space refer to the collection of defunct objects orbiting the Earth. Examples of debris include non-operational satellites, rocket bodies, and fragments generated from explosions, collisions, or faulty payload assembly.

Loading next visibility...
THORAD DELTA 1 DEB details
Identifier
8162, 1974-089AC
Orbit
SSO
Last TLE update19 hours ago
Origin
Flag of USGSFC (US)
ManufacturerUnknown
MissionSpacecraft
Bus & MotorUnknown
MassUnknown
Launch date (UTC)
1974-11-15 (50 years ago)
Launch vehicleUnknown
Launch site
Air Force Western Test Range (AFWTR)
Object type
Payload
Rocket body
Debris
Shape & HBRUnknown
Radar Cross SectionSmall (<0.1 m²)

Expand to show TLE details & history

TLE from 19 hours ago
0 THORAD DELTA 1 DEB
1  8162U 74089AC  24360.70106758  .00001829  00000-0  12024-1 0  9994
2  8162 100.7653 268.8641 0137191 195.9431 222.8270 12.49008034252980
Epoch: 2024-12-25T16:49Z
Definitive object data (Epoch: 2024-12-25T16:49:32.238Z)
Latitude56.24422°
Longitude-94.65729°
Altitude1,557.503 km
Speed7.058 km/s
True Right ascension16h 49m 40s
True Declination56° 06' 04"
Sunlit
Object was in daylight at TLE epoch
Visualization TLE readout
Latitude5.82722°
Longitude-78.60718°
Altitude1,577.166 km
Speed7.032 km/s
Apparent Right ascension19h 47m 10s
Apparent Declination-17° 54' 24"
Sunlit
Object is in daylight
Visualization observer readout
Local Sidereal Time11:07:23
Azimuth77.912° E
Elevation-41.753°
Doppler factor1
Orbital elements
Apogee altitude1,573.755 km
Perigee altitude1,358.522 km
Semi-major axis7,844.276 km
Eccentricity0.0137191
Inclination100.7653°
RAAN268.8641°
Arg. of periapsis195.9431°
True anomaly221.77165°
Mean anomaly222.827°
Eccentric anomaly222.298°
Mean motion3.12402 °/min
BSTAR0.012024
Orbital period115.24 mins
Loading maneuver chart data...

THORAD DELTA 1 DEB Visibility forecast

Observer location: undefined°, undefined

Span
Click to sort rows by Start time (UTC) header in descending order
Start Az.
Max El. time (UTC)
Max El. Az.
Max El.
End time (UTC)
End Az.
10 mins2024-12-26 15:46:58.936Z85.995° E2024-12-26 15:51:58.936Z49.972° ENE17.089°2024-12-26 15:56:58.936Z13.871° NNE
16 mins2024-12-26 17:35:58.936Z152.022° SSE2024-12-26 17:43:58.936Z58.783° ENE43.935°2024-12-26 17:51:58.936Z347.778° N
12 mins2024-12-26 19:31:58.936Z222.028° SW2024-12-26 19:37:58.936Z270.134° WNW22.514°2024-12-26 19:43:58.936Z316.068° NNW
11 mins2024-12-27 05:42:58.936Z46.498° ENE2024-12-27 05:47:58.936Z91.762° ESE24.251°2024-12-27 05:53:58.936Z145.338° SSE
14 mins2024-12-27 07:34:58.936Z8.137° NNE2024-12-27 07:41:58.936Z291.759° WNW41.526°2024-12-27 07:48:58.936Z215.431° SW
4 mins2024-12-27 09:31:58.936Z325.493° NNW2024-12-27 09:33:58.936Z309.953° NW12.91°2024-12-27 09:35:58.936Z294.688° NW
|